FW6551 Weather Reports


time (UTC)temp
C
wind
direction
speed
KPH
gust
KPH
rain 1hr
cm
rain 24hr
cm
rain mn
cm
humidity
%
barometer
mb
20260503223544 21 333 3.2 17.7 0.00 0.00 0.00 26 1004.8
20260503223040 21 210 4.8 12.9 0.00 0.00 0.00 24 1004.7
20260503222538 22 245 4.8 8.0 0.00 0.00 0.00 25 1004.8
20260503222036 22 311 6.4 17.7 0.00 0.00 0.00 24 1004.8
20260503221534 22 272 6.4 17.7 0.00 0.00 0.00 25 1004.6
20260503221031 22 223 4.8 11.3 0.00 0.00 0.00 28 1004.7
20260503220527 22 245 4.8 14.5 0.00 0.00 0.00 27 1004.5
20260503220024 22 157 4.8 14.5 0.00 0.00 0.00 28 1004.6
20260503215521 22 328 4.8 17.7 0.00 0.00 0.00 30 1004.6
20260503215018 22 292 8.0 12.9 0.00 0.00 0.00 30 1004.7
20260503214516 22 273 6.4 14.5 0.00 0.00 0.00 31 1004.4
20260503214013 22 120 1.6 16.1 0.00 0.00 0.00 33 1004.4
20260503213511 22 181 4.8 11.3 0.00 0.00 0.00 33 1004.5
20260503213007 22 71 1.6 16.1 0.00 0.00 0.00 33 1004.4
20260503212505 22 305 3.2 11.3 0.00 0.00 0.00 35 1004.6
20260503212002 22 25 8.0 19.3 0.00 0.00 0.00 33 1004.5
20260503211459 22 230 4.8 19.3 0.00 0.00 0.00 34 1004.7
20260503210954 22 181 3.2 24.1 0.00 0.00 0.00 35 1004.5
20260503210451 22 109 0.0 11.3 0.00 0.00 0.00 36 1004.4
20260503205946 22 210 4.8 14.5 0.00 0.00 0.00 34 1004.6
20260503205443 23 248 4.8 8.0 0.00 0.00 0.00 34 1004.6
20260503204939 22 152 3.2 8.0 0.00 0.00 0.00 33 1004.7
20260503204437 22 198 0.0 9.7 0.00 0.00 0.00 36 1004.8
20260503203933 22 252 4.8 11.3 0.00 0.00 0.00 35 1004.8
20260503203431 22 231 3.2 14.5 0.00 0.00 0.00 34 1004.7
20260503202928 22 63 3.2 11.3 0.00 0.00 0.00 35 1004.9
20260503202426 21 268 4.8 24.1 0.00 0.00 0.00 35 1004.9
20260503201924 22 318 4.8 12.9 0.00 0.00 0.00 32 1005.0
20260503201421 22 15 3.2 16.1 0.00 0.00 0.00 35 1005.1
20260503200918 22 287 0.0 8.0 0.00 0.00 0.00 35 1005.0
20260503200414 22 144 6.4 16.1 0.00 0.00 0.00 33 1005.1
20260503195912 22 237 4.8 14.5 0.00 0.00 0.00 34 1005.2
20260503195409 22 286 3.2 20.9 0.00 0.00 0.00 37 1005.1
20260503194905 22 295 6.4 19.3 0.00 0.00 0.00 35 1005.1
20260503194402 22 264 4.8 11.3 0.00 0.00 0.00 34 1005.0
20260503193858 22 289 6.4 14.5 0.00 0.00 0.00 35 1005.2
20260503193353 22 213 4.8 14.5 0.00 0.00 0.00 36 1005.3
20260503192849 22 208 3.2 8.0 0.00 0.00 0.00 42 1005.2
20260503192345 21 142 0.0 9.7 0.00 0.00 0.00 38 1005.3
20260503191842 21 200 1.6 14.5 0.00 0.00 0.00 39 1005.3
20260503191339 21 274 3.2 11.3 0.00 0.00 0.00 38 1005.3
20260503190835 21 11 8.0 9.7 0.00 0.00 0.00 38 1005.4
20260503190333 21 253 3.2 17.7 0.00 0.00 0.00 39 1005.7
20260503185830 20 298 1.6 6.4 0.00 0.00 0.00 42 1005.5
20260503185325 20 202 3.2 9.7 0.00 0.00 0.00 39 1005.8
20260503184820 20 323 4.8 12.9 0.00 0.00 0.00 38 1005.7
20260503184316 21 289 0.0 9.7 0.00 0.00 0.00 39 1005.7
20260503183812 21 302 1.6 8.0 0.00 0.00 0.00 40 1005.5
20260503183310 21 253 0.0 9.7 0.00 0.00 0.00 40 1005.7
20260503182807 20 216 3.2 12.9 0.00 0.00 0.00 39 1005.8
20260503182306 20 212 3.2 12.9 0.00 0.00 0.00 41 1005.7
20260503181803 21 341 8.0 11.3 0.00 0.00 0.00 39 1005.8
20260503181300 21 212 3.2 12.9 0.00 0.00 0.00 40 1005.9
20260503180756 20 175 8.0 14.5 0.00 0.00 0.00 40 1006.1
20260503180254 20 236 9.7 12.9 0.00 0.00 0.00 40 1006.0
20260503175750 21 183 11.3 11.3 0.00 0.00 0.00 39 1006.2
20260503175249 20 195 3.2 6.4 0.00 0.00 0.00 41 1006.1
20260503174744 20 340 4.8 11.3 0.00 0.00 0.00 40 1006.2
20260503174242 20 352 3.2 6.4 0.00 0.00 0.00 39 1006.0
20260503173742 20 298 3.2 6.4 0.00 0.00 0.00 41 1006.1
20260503173238 20 40 1.6 14.5 0.00 0.00 0.00 41 1006.2
20260503172736 20 78 0.0 8.0 0.00 0.00 0.00 41 1006.3
20260503172233 20 327 8.0 14.5 0.00 0.00 0.00 40 1006.5
20260503171729 19 247 6.4 14.5 0.00 0.00 0.00 41 1006.5
20260503171226 20 178 4.8 6.4 0.00 0.00 0.00 40 1006.4
20260503170723 20 261 1.6 6.4 0.00 0.00 0.00 40 1006.3
20260503170220 19 160 0.0 12.9 0.00 0.00 0.00 41 1006.4
20260503160142 18 264 3.2 9.7 0.00 0.00 0.00 43 1006.5
20260503150612 17 114 6.4 9.7 0.00 0.00 0.00 43 1006.6
20260503150108 17 252 4.8 11.3 0.00 0.00 0.00 44 1006.5
20260503131001 13 79 3.2 8.0 0.00 0.00 0.00 57 1006.9
20260503130459 13 178 3.2 4.8 0.00 0.00 0.00 59 1007.0
20260503110344 7 181 0.0 3.2 0.00 0.00 0.00 82 1007.3
20260503090229 9 173 0.0 4.8 0.00 0.00 0.00 63 1007.9
20260503081156 10 198 0.0 3.2 0.00 0.00 0.00 62 1008.5
20260503080652 10 152 3.2 4.8 0.00 0.00 0.00 62 1008.5
20260503080149 10 194 1.6 3.2 0.00 0.00 0.00 63 1008.6
20260503072626 10 146 1.6 4.8 0.00 0.00 0.00 62 1008.7
20260503072123 10 162 3.2 3.2 0.00 0.00 0.00 63 1009.0
20260503071619 10 164 0.0 4.8 0.00 0.00 0.00 64 1009.1
20260503071116 10 164 3.2 3.2 0.00 0.00 0.00 67 1009.2
20260503070614 10 197 3.2 4.8 0.00 0.00 0.00 67 1009.2
20260503070112 10 165 1.6 3.2 0.00 0.00 0.00 69 1009.1
20260503055032 11 0 0.0 1.6 0.00 0.00 0.00 71 1010.5
20260503054528 11 125 3.2 3.2 0.00 0.00 0.00 66 1010.5
20260503054025 11 140 0.0 1.6 0.00 0.00 0.00 66 1010.5
20260503053523 11 174 0.0 1.6 0.00 0.00 0.00 64 1010.5
20260503053021 11 157 0.0 1.6 0.00 0.00 0.00 63 1010.6
20260503052517 11 309 0.0 1.6 0.00 0.00 0.00 63 1010.8
20260503052014 11 117 0.0 1.6 0.00 0.00 0.00 63 1010.5
20260503051509 11 242 0.0 4.8 0.00 0.00 0.00 62 1010.4
20260503051007 11 195 0.0 1.6 0.00 0.00 0.00 63 1010.7
20260503050503 11 45 1.6 3.2 0.00 0.00 0.00 61 1010.7
20260503050000 11 135 1.6 3.2 0.00 0.00 0.00 62 1010.5
20260503045457 11 132 1.6 4.8 0.00 0.00 0.00 61 1010.7
20260503044954 11 227 0.0 1.6 0.00 0.00 0.00 64 1010.8
20260503044451 11 198 1.6 4.8 0.00 0.00 0.00 65 1010.8
20260503043949 10 147 0.0 3.2 0.00 0.00 0.00 66 1010.8
20260503043444 10 164 0.0 4.8 0.00 0.00 0.00 67 1010.9
20260503042941 10 217 0.0 3.2 0.00 0.00 0.00 68 1011.0
20260503042438 10 174 0.0 3.2 0.00 0.00 0.00 69 1011.0
20260503041935 10 66 0.0 1.6 0.00 0.00 0.00 67 1011.1
20260503041431 10 147 0.0 1.6 0.00 0.00 0.00 67 1010.9
20260503040929 10 113 0.0 1.6 0.00 0.00 0.00 67 1011.1
20260503040426 10 130 0.0 3.2 0.00 0.00 0.00 67 1011.2
20260503035923 10 116 0.0 3.2 0.00 0.00 0.00 66 1011.2
20260503035420 10 122 1.6 3.2 0.00 0.00 0.00 64 1011.4
20260503034918 10 147 0.0 3.2 0.00 0.00 0.00 65 1011.4
20260503034415 10 128 0.0 3.2 0.00 0.00 0.00 67 1011.5
20260503033912 10 186 0.0 1.6 0.00 0.00 0.00 65 1011.7
20260503033409 10 142 0.0 3.2 0.00 0.00 0.00 66 1011.7
20260503032907 10 336 0.0 0.0 0.00 0.00 0.00 63 1011.8
20260503032406 10 135 0.0 1.6 0.00 0.00 0.00 62 1011.7
20260503031903 10 304 0.0 1.6 0.00 0.00 0.00 62 1011.8
20260503031401 10 133 0.0 1.6 0.00 0.00 0.00 63 1011.9
20260503030856 10 185 0.0 0.0 0.00 0.00 0.00 63 1012.0
20260503030353 10 185 0.0 3.2 0.00 0.00 0.00 64 1012.0
20260503025850 10 75 0.0 3.2 0.00 0.00 0.00 64 1011.8
20260503025347 10 269 3.2 4.8 0.00 0.00 0.00 64 1012.0
20260503024845 10 335 0.0 3.2 0.00 0.00 0.00 63 1012.2
20260503024341 10 164 0.0 3.2 0.00 0.00 0.00 63 1012.2
20260503023838 10 158 0.0 1.6 0.00 0.00 0.00 63 1012.0
20260503023335 10 135 0.0 0.0 0.00 0.00 0.00 64 1012.1
20260503022831 10 135 0.0 1.6 0.00 0.00 0.00 62 1012.0
20260503022326 10 186 0.0 3.2 0.00 0.00 0.00 61 1012.2
20260503021823 10 195 0.0 1.6 0.00 0.00 0.00 63 1012.2
20260503021319 10 315 0.0 1.6 0.00 0.00 0.00 64 1012.1
20260503020817 10 157 0.0 1.6 0.00 0.00 0.00 64 1012.1
20260503020315 10 217 0.0 1.6 0.00 0.00 0.00 63 1012.2
20260503015811 11 217 0.0 1.6 0.00 0.00 0.00 62 1012.2
20260503015308 11 172 0.0 3.2 0.00 0.00 0.00 59 1012.1
20260503014803 11 210 0.0 1.6 0.00 0.00 0.00 58 1012.2
20260503014302 11 193 0.0 0.0 0.00 0.00 0.00 56 1012.1
20260503013758 11 145 0.0 1.6 0.00 0.00 0.00 55 1012.1
20260503013256 12 168 0.0 0.0 0.00 0.00 0.00 55 1012.1
20260503012753 12 168 0.0 0.0 0.00 0.00 0.00 52 1012.1
20260503012250 12 168 0.0 1.6 0.00 0.00 0.00 51 1012.2
20260503011747 12 154 0.0 1.6 0.00 0.00 0.00 53 1012.2
20260503011244 13 180 0.0 3.2 0.00 0.00 0.00 48 1012.4
20260503010740 13 156 0.0 1.6 0.00 0.00 0.00 47 1012.3
20260503010237 13 197 0.0 3.2 0.00 0.00 0.00 46 1012.3
20260503005734 13 170 1.6 1.6 0.00 0.00 0.00 45 1012.3
20260503005232 13 147 0.0 3.2 0.00 0.00 0.00 44 1012.4
20260503004727 13 151 0.0 1.6 0.00 0.00 0.00 44 1012.4
20260503004226 14 182 1.6 3.2 0.00 0.00 0.00 45 1012.5
20260503003723 14 117 0.0 0.0 0.00 0.00 0.00 44 1012.4
20260503003220 14 151 1.6 1.6 0.00 0.00 0.00 44 1012.5
20260503002716 15 154 0.0 3.2 0.00 0.00 0.00 43 1012.5
20260503002213 15 212 0.0 1.6 0.00 0.00 0.00 43 1012.7
20260503001709 15 186 0.0 3.2 0.00 0.00 0.00 41 1012.6
20260503001206 15 205 0.0 3.2 0.00 0.00 0.00 41 1012.6
20260503000704 15 168 0.0 1.6 0.00 0.00 0.00 41 1012.7
20260503000203 15 132 3.2 4.8 0.00 0.00 0.00 39 1012.6
20260502235658 15 174 1.6 4.8 0.00 0.00 0.00 39 1012.7
20260502235156 15 192 1.6 4.8 0.00 0.00 0.00 41 1012.7
20260502234652 15 222 1.6 8.0 0.00 0.00 0.00 39 1012.7
20260502234149 15 208 4.8 6.4 0.00 0.00 0.00 39 1013.0
20260502233645 15 97 3.2 9.7 0.00 0.00 0.00 39 1013.3
20260502233142 15 177 1.6 11.3 0.00 0.00 0.00 39 1013.2
20260502232637 15 253 6.4 8.0 0.00 0.00 0.00 38 1013.3
20260502232135 16 218 1.6 3.2 0.00 0.00 0.00 38 1013.3
20260502231626 16 132 0.0 6.4 0.00 0.00 0.00 38 1013.4
20260502231124 16 234 3.2 12.9 0.00 0.00 0.00 38 1013.4
20260502230622 15 232 0.0 11.3 0.00 0.00 0.00 38 1013.3
20260502230120 16 261 4.8 8.0 0.00 0.00 0.00 38 1013.4
20260502225615 15 200 3.2 8.0 0.00 0.00 0.00 39 1013.6
20260502225113 15 255 4.8 8.0 0.00 0.00 0.00 38 1013.6
20260502224609 16 330 3.2 8.0 0.00 0.00 0.00 38 1013.8
20260502224106 16 198 6.4 11.3 0.00 0.00 0.00 37 1013.8